MYU930 WALL-WSSS

Flight info

Callsign MYU930
Flight time N/A
Altitude 34000
Route DCT OSRUT L504 OBDOS DCT
Aircraft A21N/M-SDE2E3FGHIRWXY/LB1

Departure

Time 2026-05-08 06:47
Airport Sultan Aji Muhammad Sulaiman Sepinggan International Airport (WALL)

Arrival

Time N/A
Airport Singapore Changi Airport (WSSS)
Time Latitude Longitude Altitude Speed Heading
2026-05-08 06:42 -1.26708 116.89060 42 ft 0 kts 335°
2026-05-08 06:43 -1.26708 116.89061 42 ft 0 kts 335°
2026-05-08 06:43 -1.26710 116.89061 42 ft 0 kts 310°
2026-05-08 06:44 -1.26700 116.89059 42 ft 1 kts 27°
2026-05-08 06:44 -1.26693 116.89086 42 ft 6 kts 65°
2026-05-08 06:44 -1.26678 116.89147 40 ft 12 kts 100°
2026-05-08 06:44 -1.26751 116.89188 36 ft 12 kts 220°
2026-05-08 06:45 -1.26793 116.89114 37 ft 11 kts 241°
2026-05-08 06:45 -1.26831 116.89043 38 ft 11 kts 244°
2026-05-08 06:45 -1.26859 116.88973 39 ft 10 kts 252°
2026-05-08 06:45 -1.26908 116.88924 38 ft 11 kts 192°
2026-05-08 06:46 -1.26991 116.88945 35 ft 14 kts 144°
2026-05-08 06:46 -1.27004 116.89041 32 ft 20 kts 71°
2026-05-08 06:46 -1.26842 116.89426 28 ft 101 kts 66°
2026-05-08 06:46 -1.26463 116.90305 42 ft 168 kts 68°
2026-05-08 06:47 -1.26001 116.91403 682 ft 178 kts 67°
2026-05-08 06:47 -1.25507 116.92506 1565 ft 177 kts 63°
2026-05-08 06:47 -1.24658 116.93351 2190 ft 178 kts 20°
2026-05-08 06:47 -1.23430 116.93310 2427 ft 189 kts 330°
2026-05-08 06:48 -1.22409 116.92388 2558 ft 210 kts 301°
2026-05-08 06:48 -1.21870 116.90991 2799 ft 226 kts 277°
2026-05-08 06:48 -1.21729 116.89372 3118 ft 241 kts 272°
2026-05-08 06:48 -1.21618 116.87650 3433 ft 258 kts 274°
2026-05-08 06:49 -1.21450 116.85799 3834 ft 272 kts 275°
2026-05-08 06:49 -1.21236 116.83928 4468 ft 274 kts 277°
2026-05-08 06:49 -1.20996 116.82053 5129 ft 276 kts 278°
2026-05-08 06:49 -1.20734 116.80137 5764 ft 278 kts 278°
2026-05-08 06:50 -1.20462 116.78233 6383 ft 281 kts 279°